TimeCDT,TemperatureF,Dew PointF,Humidity,Sea Level PressureIn,VisibilityMPH,Wind Direction,Wind SpeedMPH,Gust SpeedMPH,PrecipitationIn,Events,Conditions,WindDirDegrees,DateUTC
2:12 AM,32.0,30.2,93,29.81,4.0,Calm,Calm,-,N/A,,Scattered Clouds,0,2012-10-14 07:12:00
2:32 AM,33.8,32.0,93,29.82,4.0,Calm,Calm,-,N/A,,Mostly Cloudy,0,2012-10-14 07:32:00
2:53 AM,32.0,32.0,100,29.81,7.0,Calm,Calm,-,N/A,,Overcast,0,2012-10-14 07:53:00
3:12 AM,33.8,33.8,100,29.82,5.0,Calm,Calm,-,N/A,,Overcast,0,2012-10-14 08:12:00
3:32 AM,35.6,33.8,93,29.82,5.0,Calm,Calm,-,N/A,,Overcast,0,2012-10-14 08:32:00
3:53 AM,33.8,33.8,100,29.83,5.0,Calm,Calm,-,N/A,,Overcast,0,2012-10-14 08:53:00
4:12 AM,33.8,33.8,100,29.83,7.0,Calm,Calm,-,N/A,,Overcast,0,2012-10-14 09:12:00
4:32 AM,35.6,35.6,100,29.84,7.0,Calm,Calm,-,N/A,,Overcast,0,2012-10-14 09:32:00
4:53 AM,35.6,35.6,100,29.84,7.0,Calm,Calm,-,N/A,,Overcast,0,2012-10-14 09:53:00
6:33 AM,37.4,35.6,93,29.87,7.0,Calm,Calm,-,N/A,,Overcast,0,2012-10-14 11:33:00
6:52 AM,37.4,35.6,93,29.87,7.0,Calm,Calm,-,N/A,,Overcast,0,2012-10-14 11:52:00
7:12 AM,37.4,35.6,93,29.87,10.0,Calm,Calm,-,N/A,,Overcast,0,2012-10-14 12:12:00
7:33 AM,37.4,35.6,93,29.87,7.0,Calm,Calm,-,N/A,,Overcast,0,2012-10-14 12:33:00
7:52 AM,37.4,37.4,100,29.87,10.0,Calm,Calm,-,N/A,,Overcast,0,2012-10-14 12:52:00
8:12 AM,37.4,37.4,100,29.87,10.0,Calm,Calm,-,N/A,,Overcast,0,2012-10-14 13:12:00
8:33 AM,39.2,37.4,93,29.87,10.0,Calm,Calm,-,N/A,,Overcast,0,2012-10-14 13:33:00
8:52 AM,39.2,37.4,93,29.88,10.0,Calm,Calm,-,N/A,,Overcast,0,2012-10-14 13:52:00
9:12 AM,39.2,37.4,93,29.88,10.0,WNW,4.6,-,N/A,,Overcast,290,2012-10-14 14:12:00
9:33 AM,39.2,37.4,93,29.88,10.0,WNW,3.5,-,N/A,,Overcast,300,2012-10-14 14:33:00
9:52 AM,39.2,37.4,93,29.88,10.0,West,3.5,-,N/A,,Overcast,280,2012-10-14 14:52:00
10:12 AM,39.2,39.2,100,29.88,10.0,Calm,Calm,-,N/A,,Mostly Cloudy,0,2012-10-14 15:12:00
10:33 AM,42.8,41.0,93,29.88,10.0,West,3.5,-,N/A,,Overcast,260,2012-10-14 15:33:00
10:52 AM,41.0,39.2,93,29.88,10.0,WSW,5.8,-,N/A,,Overcast,250,2012-10-14 15:52:00
11:12 AM,42.8,39.2,87,29.87,10.0,West,4.6,-,N/A,,Overcast,260,2012-10-14 16:12:00
11:33 AM,42.8,39.2,87,29.87,10.0,WSW,5.8,-,N/A,,Overcast,240,2012-10-14 16:33:00
11:52 AM,42.8,37.4,81,29.87,10.0,WSW,5.8,-,N/A,,Overcast,240,2012-10-14 16:52:00
12:12 PM,44.6,39.2,81,29.87,10.0,Calm,Calm,-,N/A,,Scattered Clouds,0,2012-10-14 17:12:00
12:33 PM,48.2,39.2,71,29.86,10.0,WSW,3.5,-,N/A,,Scattered Clouds,250,2012-10-14 17:33:00
12:52 PM,48.2,37.4,66,29.86,10.0,WSW,6.9,-,N/A,,Mostly Cloudy,250,2012-10-14 17:52:00
1:12 PM,46.4,37.4,71,29.85,10.0,WSW,3.5,-,N/A,,Scattered Clouds,240,2012-10-14 18:12:00
1:33 PM,50.0,37.4,62,29.85,10.0,WSW,3.5,-,N/A,,Scattered Clouds,250,2012-10-14 18:33:00
1:52 PM,53.6,37.4,54,29.85,10.0,WSW,6.9,-,N/A,,Scattered Clouds,250,2012-10-14 18:52:00
2:12 PM,51.8,37.4,58,29.84,10.0,WSW,4.6,-,N/A,,Clear,250,2012-10-14 19:12:00
2:33 PM,53.6,35.6,51,29.84,10.0,West,3.5,-,N/A,,Clear,280,2012-10-14 19:33:00
2:52 PM,51.8,37.4,58,29.84,10.0,WSW,6.9,-,N/A,,Clear,240,2012-10-14 19:52:00
3:12 PM,51.8,37.4,58,29.84,10.0,WSW,6.9,-,N/A,,Clear,240,2012-10-14 20:12:00
3:32 PM,53.6,35.6,51,29.84,10.0,SW,5.8,-,N/A,,Clear,230,2012-10-14 20:32:00
3:52 PM,53.6,33.8,47,29.84,10.0,SW,8.1,-,N/A,,Clear,230,2012-10-14 20:52:00
4:13 PM,53.6,35.6,51,29.84,10.0,SW,5.8,-,N/A,,Clear,230,2012-10-14 21:13:00
4:33 PM,53.6,35.6,51,29.84,10.0,WSW,4.6,-,N/A,,Scattered Clouds,250,2012-10-14 21:33:00
4:52 PM,51.8,37.4,58,29.85,10.0,West,4.6,-,N/A,,Scattered Clouds,260,2012-10-14 21:52:00
5:12 PM,51.8,37.4,58,29.85,10.0,WNW,3.5,-,N/A,,Scattered Clouds,290,2012-10-14 22:12:00
5:32 PM,51.8,35.6,54,29.85,10.0,WNW,5.8,-,N/A,,Mostly Cloudy,300,2012-10-14 22:32:00
5:52 PM,51.8,35.6,54,29.85,10.0,NW,3.5,-,N/A,,Scattered Clouds,310,2012-10-14 22:52:00
6:32 PM,48.2,33.8,58,29.86,10.0,North,5.8,-,N/A,,Overcast,360,2012-10-14 23:32:00
6:52 PM,46.4,33.8,62,29.86,10.0,NW,3.5,-,N/A,,Mostly Cloudy,320,2012-10-14 23:52:00
7:13 PM,46.4,33.8,62,29.87,10.0,Calm,Calm,-,N/A,,Mostly Cloudy,0,2012-10-15 00:13:00
7:32 PM,44.6,33.8,66,29.88,10.0,Calm,Calm,-,N/A,,Scattered Clouds,0,2012-10-15 00:32:00
7:52 PM,42.8,33.8,70,29.88,10.0,Calm,Calm,-,N/A,,Mostly Cloudy,0,2012-10-15 00:52:00
8:13 PM,41.0,33.8,76,29.88,10.0,NW,3.5,-,N/A,,Scattered Clouds,310,2012-10-15 01:13:00
8:52 PM,42.8,35.6,76,29.88,10.0,Calm,Calm,-,N/A,,Clear,0,2012-10-15 01:52:00
9:13 PM,33.8,28.4,81,29.88,10.0,Calm,Calm,-,N/A,,Clear,0,2012-10-15 02:13:00
9:32 PM,32.0,28.4,87,29.88,10.0,Calm,Calm,-,N/A,,Clear,0,2012-10-15 02:32:00
10:32 PM,30.2,28.4,93,29.89,10.0,Calm,Calm,-,N/A,,Clear,0,2012-10-15 03:32:00
10:52 PM,28.4,26.6,93,29.88,10.0,Calm,Calm,-,N/A,,Clear,0,2012-10-15 03:52:00
11:12 PM,26.6,26.6,100,29.89,10.0,West,4.6,-,N/A,,Clear,280,2012-10-15 04:12:00
11:32 PM,30.2,28.4,93,29.89,10.0,WNW,3.5,-,N/A,,Clear,290,2012-10-15 04:32:00